User: anonymous   Login
Location: Betra
(48.4113°N, 8.6634°E)
Time: 20:07:20
(UTC+00:00)
Language:

Geosat - Orbit

View from above orbital plane
View from above orbital plane
View from above satellite
View from above satellite

Ground track
Ground track

The orbit data is extracted from the following two-line orbital elements,

1 15595U 85021A   24199.56765212  .00000539  00000-0  21781-3 0  9999
2 15595 108.0594  65.6282 0001930 254.2012 105.8917 14.39060074 62083
Epoch (UTC): 17 July 2024 13:37:25
Eccentricity: 0.0001930
inclination: 108.0594°
perigee height: 760 km
apogee height: 763 km
right ascension of ascending node: 65.6282°
argument of perigee: 254.2012°
revolutions per day: 14.39060074
mean anomaly at epoch: 105.8917°
orbit number at epoch: 6208

The dashed part of the orbit path shows where the satellite is in the earth's shadow,  

DLR